,,,PA_Meas_PMT16A,,PR_Meas_QMR101_102,,RH_Meas_QMH101,,SR_Meas_QMS101,,TA_Meas_QMH101,,GenWind,,GenWind,
date,time,status,PA,status,PR,status,RH,status,SR,status,TA,status,DirAvg,status,SpdAvg,
2010-08-01, 00:00:04,VALID,1006.38,VALID,0,VALID,104,VALID,0.100563,VALID,24.751,VALID,13,VALID,1.09766,
2010-08-01, 00:01:04,VALID,1006.36,VALID,0,VALID,104,VALID,0.100563,VALID,24.7724,VALID,14,VALID,0.759766,
2010-08-01, 00:02:04,VALID,1006.33,VALID,0,VALID,104,VALID,0.100563,VALID,24.7919,VALID,351,VALID,1.0543,
2010-08-01, 00:03:04,VALID,1006.31,VALID,0,VALID,104,VALID,0,VALID,24.751,VALID,354,VALID,0.514453,
2010-08-01, 00:04:04,VALID,1006.28,VALID,0,VALID,104,VALID,0.100563,VALID,24.7705,VALID,10,VALID,0.713281,
2010-08-01, 00:05:04,VALID,1006.3,VALID,0,VALID,104,VALID,0.100563,VALID,24.79,VALID,13,VALID,0.598437,
2010-08-01, 00:06:04,VALID,1006.31,VALID,0,VALID,104,VALID,0.100563,VALID,24.8308,VALID,7,VALID,0.647266,
2010-08-01, 00:07:04,VALID,1006.32,VALID,0,VALID,104,VALID,0.100563,VALID,24.8503,VALID,3,VALID,0.696484,
2010-08-01, 00:08:04,VALID,1006.35,VALID,0,VALID,104,VALID,0.100563,VALID,24.8892,VALID,273,VALID,0.291016,
2010-08-01, 00:09:04,VALID,1006.37,VALID,0,VALID,104,VALID,0.100563,VALID,24.8873,VALID,275,VALID,0.116016,
2010-08-01, 00:10:04,VALID,1006.4,VALID,0,VALID,104,VALID,0,VALID,24.8911,VALID,46,VALID,0.605859,
2010-08-01, 00:11:04,VALID,1006.45,VALID,0,VALID,104,VALID,0,VALID,24.8522,VALID,119,VALID,0.46875,
2010-08-01, 00:12:04,VALID,1006.48,VALID,0,VALID,104,VALID,0,VALID,24.8522,VALID,119,VALID,0.171484,
2010-08-01, 00:13:04,VALID,1006.52,VALID,0,VALID,104,VALID,0,VALID,24.8697,VALID,119,VALID,0.899609,
2010-08-01, 00:14:04,VALID,1006.53,VALID,0,VALID,104,VALID,0,VALID,24.8716,VALID,119,VALID,0.714844,
2010-08-01, 00:15:04,VALID,1006.49,VALID,0,VALID,104,VALID,0,VALID,24.8503,VALID,128,VALID,1.01406,
2010-08-01, 00:16:04,VALID,1006.49,VALID,0.5,VALID,104,VALID,0,VALID,24.8911,VALID,135,VALID,0.699609,
2010-08-01, 00:17:04,VALID,1006.48,VALID,0,VALID,104,VALID,0,VALID,24.8308,VALID,141,VALID,1.11094,
2010-08-01, 00:18:04,VALID,1006.45,VALID,0,VALID,104,VALID,0,VALID,24.8327,VALID,195,VALID,1.02266,
2010-08-01, 00:19:04,VALID,1006.43,VALID,0,VALID,104,VALID,0,VALID,24.8327,VALID,119,VALID,0.467969,
2010-08-01, 00:20:04,VALID,1006.42,VALID,0,VALID,104,VALID,0,VALID,24.8113,VALID,100,VALID,0.275781,
2010-08-01, 00:21:04,VALID,1006.47,VALID,0,VALID,104,VALID,0,VALID,24.8327,VALID,138,VALID,1.05898,
2010-08-01, 00:22:04,VALID,1006.5,VALID,0,VALID,104,VALID,0,VALID,24.8522,VALID,162,VALID,0.861328,
2010-08-01, 00:23:04,VALID,1006.5,VALID,0,VALID,104,VALID,0,VALID,24.8716,VALID,160,VALID,0.417969,
2010-08-01, 00:24:04,VALID,1006.49,VALID,0,VALID,104,VALID,0,VALID,24.8716,VALID,156,VALID,1.31523,
2010-08-01, 00:25:04,VALID,1006.49,VALID,0,VALID,104,VALID,0.100563,VALID,24.8892,VALID,211,VALID,0.985937,
2010-08-01, 00:26:04,VALID,1006.49,VALID,0,VALID,104,VALID,0.100563,VALID,24.8892,VALID,151,VALID,0.552734,
2010-08-01, 00:27:04,VALID,1006.54,VALID,0,VALID,104,VALID,0,VALID,24.8892,VALID,171,VALID,0.671484,
2010-08-01, 00:28:04,VALID,1006.53,VALID,0,VALID,104,VALID,0,VALID,24.8892,VALID,165,VALID,0.844922,
2010-08-01, 00:29:04,VALID,1006.59,VALID,0,VALID,104,VALID,0,VALID,24.8892,VALID,155,VALID,0.471094,
2010-08-01, 00:30:04,VALID,1006.6,VALID,0,VALID,104,VALID,0,VALID,24.9087,VALID,155,VALID,0.325391,
2010-08-01, 00:31:04,VALID,1006.57,VALID,0,VALID,104,VALID,0,VALID,24.9087,VALID,149,VALID,0.699609,
2010-08-01, 00:32:04,VALID,1006.54,VALID,0,VALID,104,VALID,0.100563,VALID,24.8873,VALID,113,VALID,0.881641,
2010-08-01, 00:33:04,VALID,1006.54,VALID,0,VALID,104,VALID,0,VALID,24.9087,VALID,111,VALID,0.621094,
2010-08-01, 00:34:04,VALID,1006.54,VALID,0,VALID,104,VALID,0,VALID,24.9282,VALID,109,VALID,0.434375,
2010-08-01, 00:35:04,VALID,1006.53,VALID,0,VALID,104,VALID,0,VALID,24.9087,VALID,108,VALID,0.294531,
2010-08-01, 00:36:04,VALID,1006.57,VALID,0,VALID,104,VALID,0,VALID,24.9282,VALID,111,VALID,0.866797,
2010-08-01, 00:37:04,VALID,1006.59,VALID,0,VALID,104,VALID,0.100563,VALID,24.9263,VALID,135,VALID,0.983594,
2010-08-01, 00:38:04,VALID,1006.63,VALID,0,VALID,104,VALID,0.100563,VALID,24.9671,VALID,132,VALID,1.36875,
2010-08-01, 00:39:04,VALID,1006.6,VALID,0,VALID,104,VALID,0.100563,VALID,24.9671,VALID,130,VALID,1.39492,
2010-08-01, 00:40:04,VALID,1006.62,VALID,0,VALID,104,VALID,0,VALID,24.9495,VALID,169,VALID,1.08242,
2010-08-01, 00:41:04,VALID,1006.63,VALID,0,VALID,104,VALID,0,VALID,24.93,VALID,153,VALID,2.31641,
2010-08-01, 00:42:04,VALID,1006.62,VALID,0,VALID,104,VALID,0,VALID,24.9106,VALID,153,VALID,1.34961,
2010-08-01, 00:43:04,VALID,1006.57,VALID,0.5,VALID,104,VALID,0,VALID,24.8911,VALID,191,VALID,1.83711,
2010-08-01, 00:44:04,VALID,1006.54,VALID,0,VALID,104,VALID,0,VALID,24.8308,VALID,197,VALID,1.29883,
2010-08-01, 00:45:04,VALID,1006.52,VALID,0,VALID,104,VALID,0,VALID,24.8346,VALID,219,VALID,1.61875,
2010-08-01, 00:46:04,VALID,1006.5,VALID,0,VALID,104,VALID,0,VALID,24.8327,VALID,144,VALID,0.566406,
2010-08-01, 00:47:04,VALID,1006.48,VALID,0,VALID,104,VALID,0,VALID,24.7529,VALID,238,VALID,0.870703,
2010-08-01, 00:48:04,VALID,1006.47,VALID,0.5,VALID,104,VALID,0,VALID,24.6574,VALID,153,VALID,0.969922,
2010-08-01, 00:49:04,VALID,1006.44,VALID,1.5,VALID,104,VALID,0,VALID,24.5777,VALID,198,VALID,0.182812,
2010-08-01, 00:50:04,VALID,1006.44,VALID,0,VALID,104,VALID,0,VALID,24.5601,VALID,198,VALID,0.0695312,
2010-08-01, 00:51:04,VALID,1006.55,VALID,0.5,VALID,104,VALID,0,VALID,24.5017,VALID,116,VALID,1.56719,
2010-08-01, 00:52:04,VALID,1006.61,VALID,0,VALID,104,VALID,0,VALID,24.4628,VALID,100,VALID,2.14648,
2010-08-01, 00:53:04,VALID,1006.63,VALID,0,VALID,104,VALID,0,VALID,24.4238,VALID,126,VALID,2.12852,
2010-08-01, 00:54:04,VALID,1006.58,VALID,1.5,VALID,104,VALID,0,VALID,24.3654,VALID,77,VALID,1.55195,
2010-08-01, 00:55:04,VALID,1006.44,VALID,0.5,VALID,104,VALID,0,VALID,24.2468,VALID,81,VALID,0.376953,
2010-08-01, 00:56:04,VALID,1006.46,VALID,0,VALID,104,VALID,0,VALID,24.1902,VALID,112,VALID,1.05898,
2010-08-01, 00:57:04,VALID,1006.43,VALID,0,VALID,104,VALID,0.100563,VALID,24.091,VALID,121,VALID,1.05508,
2010-08-01, 00:58:04,VALID,1006.4,VALID,0,VALID,104,VALID,0,VALID,24.0521,VALID,160,VALID,0.730469,
2010-08-01, 00:59:04,VALID,1006.39,VALID,0,VALID,104,VALID,0,VALID,24.0716,VALID,159,VALID,0.164453,
2010-08-01, 01:00:04,VALID,1006.36,VALID,0,VALID,104,VALID,0.100563,VALID,24.091,VALID,159,VALID,0.612891,
2010-08-01, 01:01:04,VALID,1006.36,VALID,0,VALID,104,VALID,0,VALID,23.9919,VALID,161,VALID,0.757422,
2010-08-01, 01:02:04,VALID,1006.33,VALID,0,VALID,104,VALID,0,VALID,23.9353,VALID,136,VALID,0.479297,
2010-08-01, 01:03:04,VALID,1006.29,VALID,0,VALID,104,VALID,0,VALID,23.9159,VALID,114,VALID,0.933984,
2010-08-01, 01:04:04,VALID,1006.27,VALID,0,VALID,104,VALID,0.100563,VALID,23.8964,VALID,103,VALID,0.429688,
2010-08-01, 01:05:04,VALID,1006.24,VALID,0,VALID,104,VALID,0.100563,VALID,23.8769,VALID,105,VALID,0.425781,
2010-08-01, 01:06:04,VALID,1006.26,VALID,0,VALID,104,VALID,0,VALID,23.838,VALID,103,VALID,1.03867,
2010-08-01, 01:07:04,VALID,1006.26,VALID,0,VALID,104,VALID,0,VALID,23.8575,VALID,105,VALID,0.563672,
2010-08-01, 01:08:04,VALID,1006.24,VALID,0,VALID,104,VALID,0,VALID,23.838,VALID,104,VALID,0.838281,
2010-08-01, 01:09:04,VALID,1006.25,VALID,0,VALID,104,VALID,0,VALID,23.838,VALID,96,VALID,0.927734,
2010-08-01, 01:10:04,VALID,1006.23,VALID,0,VALID,104,VALID,0,VALID,23.838,VALID,97,VALID,0.471094,
2010-08-01, 01:11:04,VALID,1006.19,VALID,0,VALID,104,VALID,0.100563,VALID,23.838,VALID,98,VALID,0.498047,
2010-08-01, 01:12:04,VALID,1006.15,VALID,0,VALID,104,VALID,0,VALID,23.8575,VALID,98,VALID,0.507031,
2010-08-01, 01:13:04,VALID,1006.12,VALID,0,VALID,104,VALID,0,VALID,23.838,VALID,98,VALID,0.746484,
2010-08-01, 01:14:04,VALID,1006.07,VALID,0,VALID,104,VALID,0,VALID,23.8185,VALID,98,VALID,0.494531,
2010-08-01, 01:15:04,VALID,1006.01,VALID,0,VALID,104,VALID,0.100563,VALID,23.838,VALID,116,VALID,0.734766,
2010-08-01, 01:16:04,VALID,1005.95,VALID,0,VALID,104,VALID,0.100563,VALID,23.8556,VALID,118,VALID,0.954687,
2010-08-01, 01:17:04,VALID,1005.91,VALID,0,VALID,104,VALID,0,VALID,23.9353,VALID,133,VALID,0.814453,
2010-08-01, 01:18:04,VALID,1005.86,VALID,0,VALID,104,VALID,0,VALID,23.9353,VALID,136,VALID,0.394141,
2010-08-01, 01:19:04,VALID,1005.84,VALID,0,VALID,104,VALID,0.100563,VALID,23.9724,VALID,164,VALID,0.9125,
2010-08-01, 01:20:04,VALID,1005.8,VALID,0,VALID,104,VALID,0,VALID,24.091,VALID,113,VALID,1.0668,
2010-08-01, 01:21:04,VALID,1005.78,VALID,0,VALID,104,VALID,0,VALID,24.13,VALID,164,VALID,0.948047,
2010-08-01, 01:22:04,VALID,1005.76,VALID,0,VALID,104,VALID,0.100563,VALID,24.1689,VALID,160,VALID,0.272656,
2010-08-01, 01:23:04,VALID,1005.75,VALID,0,VALID,104,VALID,0,VALID,24.1671,VALID,160,VALID,0.207031,
2010-08-01, 01:24:04,VALID,1005.8,VALID,0,VALID,104,VALID,0.100563,VALID,24.1884,VALID,171,VALID,1.2957,
2010-08-01, 01:25:04,VALID,1005.82,VALID,0,VALID,104,VALID,0.100563,VALID,24.2078,VALID,185,VALID,0.683203,
2010-08-01, 01:26:04,VALID,1005.83,VALID,0,VALID,104,VALID,0,VALID,24.2273,VALID,167,VALID,0.465625,
2010-08-01, 01:27:04,VALID,1005.84,VALID,0,VALID,104,VALID,0.100563,VALID,24.2468,VALID,179,VALID,1.20938,
2010-08-01, 01:28:04,VALID,1005.86,VALID,0,VALID,104,VALID,0,VALID,24.2662,VALID,177,VALID,0.343359,
2010-08-01, 01:29:04,VALID,1005.86,VALID,0,VALID,104,VALID,0.100563,VALID,24.2857,VALID,177,VALID,0.350391,
2010-08-01, 01:30:04,VALID,1005.87,VALID,0,VALID,104,VALID,0.100563,VALID,24.2857,VALID,159,VALID,0.772266,
2010-08-01, 01:31:04,VALID,1005.83,VALID,0,VALID,104,VALID,0,VALID,24.3052,VALID,145,VALID,0.355859,
2010-08-01, 01:32:04,VALID,1005.82,VALID,0,VALID,104,VALID,0.100563,VALID,24.3246,VALID,158,VALID,0.147266,
2010-08-01, 01:33:04,VALID,1005.79,VALID,0,VALID,104,VALID,0,VALID,24.3246,VALID,158,VALID,0.0511719,
2010-08-01, 01:34:04,VALID,1005.77,VALID,0,VALID,104,VALID,0.100563,VALID,24.3246,VALID,158,VALID,0,
2010-08-01, 01:35:04,VALID,1005.71,VALID,0,VALID,104,VALID,0,VALID,24.3052,VALID,159,VALID,0.267188,
2010-08-01, 01:36:04,VALID,1005.65,VALID,0,VALID,104,VALID,0.100563,VALID,24.3052,VALID,161,VALID,0,
2010-08-01, 01:37:04,VALID,1005.65,VALID,0,VALID,104,VALID,0,VALID,24.3052,VALID,161,VALID,0,
2010-08-01, 01:38:04,VALID,1005.61,VALID,0,VALID,104,VALID,0,VALID,24.3052,VALID,161,VALID,0,
2010-08-01, 01:39:04,VALID,1005.61,VALID,0,VALID,104,VALID,0.100563,VALID,24.3052,VALID,161,VALID,0.379687,
2010-08-01, 01:40:04,VALID,1005.57,VALID,0,VALID,104,VALID,0,VALID,24.3265,VALID,161,VALID,0.369922,
2010-08-01, 01:41:04,VALID,1005.55,VALID,0,VALID,104,VALID,0,VALID,24.307,VALID,159,VALID,0.360938,
2010-08-01, 01:42:04,VALID,1005.54,VALID,0,VALID,104,VALID,0,VALID,24.3265,VALID,52,VALID,0.585938,
2010-08-01, 01:43:04,VALID,1005.56,VALID,0,VALID,104,VALID,0,VALID,24.3265,VALID,51,VALID,0.619922,
2010-08-01, 01:44:04,VALID,1005.52,VALID,0,VALID,104,VALID,0,VALID,24.2857,VALID,49,VALID,0.521484,
2010-08-01, 01:45:04,VALID,1005.51,VALID,0,VALID,104,VALID,0,VALID,24.307,VALID,49,VALID,0.404687,
2010-08-01, 01:46:04,VALID,1005.47,VALID,0,VALID,104,VALID,0,VALID,24.2875,VALID,49,VALID,0.472656,
2010-08-01, 01:47:04,VALID,1005.45,VALID,0,VALID,104,VALID,0,VALID,24.3088,VALID,49,VALID,0.213672,
2010-08-01, 01:48:04,VALID,1005.4,VALID,0,VALID,104,VALID,0,VALID,24.2875,VALID,49,VALID,0.203125,
2010-08-01, 01:49:04,VALID,1005.36,VALID,0,VALID,104,VALID,0,VALID,24.2681,VALID,49,VALID,0,
2010-08-01, 01:50:04,VALID,1005.34,VALID,0,VALID,104,VALID,0,VALID,24.2468,VALID,49,VALID,0,
2010-08-01, 01:51:04,VALID,1005.3,VALID,0,VALID,104,VALID,0,VALID,24.2486,VALID,49,VALID,0,
2010-08-01, 01:52:04,VALID,1005.28,VALID,0,VALID,104,VALID,0,VALID,24.2078,VALID,32,VALID,0,
2010-08-01, 01:53:04,VALID,1005.24,VALID,0,VALID,104,VALID,0,VALID,24.2097,VALID,3,VALID,0.75625,
2010-08-01, 01:54:04,VALID,1005.22,VALID,0,VALID,104,VALID,0,VALID,24.1902,VALID,3,VALID,0.946484,
2010-08-01, 01:55:04,VALID,1005.21,VALID,0,VALID,104,VALID,0,VALID,24.1689,VALID,3,VALID,0.765625,
2010-08-01, 01:56:04,VALID,1005.13,VALID,0,VALID,104,VALID,0,VALID,24.1902,VALID,3,VALID,0.624609,
2010-08-01, 01:57:04,VALID,1005.13,VALID,0,VALID,104,VALID,0,VALID,24.1689,VALID,3,VALID,0.430859,
2010-08-01, 01:58:04,VALID,1005.09,VALID,0,VALID,104,VALID,0,VALID,24.1494,VALID,3,VALID,0.485938,
2010-08-01, 01:59:04,VALID,1005.11,VALID,0,VALID,104,VALID,0,VALID,24.1513,VALID,3,VALID,0.339453,
2010-08-01, 02:00:04,VALID,1005.08,VALID,0,VALID,104,VALID,0,VALID,24.1513,VALID,8,VALID,0.0875,
2010-08-01, 02:01:04,VALID,1005.04,VALID,0,VALID,104,VALID,0,VALID,24.1318,VALID,60,VALID,0.498437,
2010-08-01, 02:02:04,VALID,1005.02,VALID,0,VALID,104,VALID,0,VALID,24.1123,VALID,60,VALID,0.344141,
2010-08-01, 02:03:04,VALID,1005.02,VALID,0,VALID,104,VALID,0,VALID,24.1123,VALID,60,VALID,0.428906,
2010-08-01, 02:04:04,VALID,1004.99,VALID,0,VALID,104,VALID,0,VALID,24.1123,VALID,59,VALID,0.115234,
2010-08-01, 02:05:04,VALID,1005,VALID,0,VALID,104,VALID,0,VALID,24.0521,VALID,56,VALID,0,
2010-08-01, 02:06:04,VALID,1004.99,VALID,0,VALID,104,VALID,0,VALID,24.0929,VALID,56,VALID,0,
2010-08-01, 02:07:04,VALID,1005,VALID,0,VALID,104,VALID,0,VALID,24.0716,VALID,40,VALID,0,
2010-08-01, 02:08:04,VALID,1005.02,VALID,0,VALID,104,VALID,0,VALID,24.091,VALID,36,VALID,0.542188,
2010-08-01, 02:09:04,VALID,1005.02,VALID,0,VALID,104,VALID,0,VALID,24.091,VALID,35,VALID,0.337109,
2010-08-01, 02:10:04,VALID,1005.03,VALID,0,VALID,104,VALID,0,VALID,24.1318,VALID,35,VALID,0.0882813,
2010-08-01, 02:11:04,VALID,1005.05,VALID,0,VALID,104,VALID,0,VALID,24.1123,VALID,83,VALID,0.536328,
2010-08-01, 02:12:04,VALID,1005.06,VALID,0,VALID,104,VALID,0,VALID,24.0892,VALID,83,VALID,0.428125,
2010-08-01, 02:13:04,VALID,1005.04,VALID,0,VALID,104,VALID,0,VALID,24.1105,VALID,83,VALID,0.571875,
2010-08-01, 02:14:04,VALID,1005.07,VALID,0,VALID,104,VALID,0,VALID,24.1513,VALID,94,VALID,0.577734,
2010-08-01, 02:15:04,VALID,1005.11,VALID,0,VALID,104,VALID,0,VALID,24.1707,VALID,93,VALID,0.682813,
2010-08-01, 02:16:04,VALID,1005.14,VALID,0,VALID,104,VALID,0,VALID,24.1494,VALID,73,VALID,0.980078,
2010-08-01, 02:17:04,VALID,1005.15,VALID,0,VALID,104,VALID,0,VALID,24.1707,VALID,71,VALID,0.504687,
2010-08-01, 02:18:04,VALID,1005.12,VALID,0,VALID,104,VALID,0,VALID,24.1707,VALID,86,VALID,0.05625,
2010-08-01, 02:19:04,VALID,1005.11,VALID,0,VALID,104,VALID,0,VALID,24.1707,VALID,84,VALID,0.203125,
2010-08-01, 02:20:04,VALID,1005.07,VALID,0,VALID,104,VALID,0,VALID,24.1707,VALID,84,VALID,0.00976563,
2010-08-01, 02:21:04,VALID,1005.01,VALID,0,VALID,104,VALID,0,VALID,24.1707,VALID,342,VALID,0.469531,
2010-08-01, 02:22:04,VALID,1004.97,VALID,0,VALID,104,VALID,0,VALID,24.1494,VALID,342,VALID,0,
2010-08-01, 02:23:04,VALID,1004.95,VALID,0,VALID,104,VALID,0,VALID,24.1902,VALID,342,VALID,0,
2010-08-01, 02:24:04,VALID,1004.92,VALID,0,VALID,104,VALID,0,VALID,24.1902,VALID,341,VALID,0.0453125,
2010-08-01, 02:25:04,VALID,1004.93,VALID,0,VALID,104,VALID,0,VALID,24.2097,VALID,340,VALID,0,
2010-08-01, 02:26:04,VALID,1004.93,VALID,0,VALID,104,VALID,0,VALID,24.2291,VALID,340,VALID,0,
2010-08-01, 02:27:04,VALID,1004.96,VALID,0,VALID,104,VALID,0,VALID,24.2097,VALID,329,VALID,0.312891,
2010-08-01, 02:28:04,VALID,1004.97,VALID,0,VALID,104,VALID,0,VALID,24.1689,VALID,331,VALID,0.341797,
2010-08-01, 02:29:04,VALID,1004.98,VALID,0,VALID,104,VALID,0,VALID,24.1689,VALID,12,VALID,0.747266,
2010-08-01, 02:30:04,VALID,1005,VALID,0,VALID,104,VALID,0,VALID,24.1494,VALID,13,VALID,0.465625,
2010-08-01, 02:31:04,VALID,1005.02,VALID,0,VALID,104,VALID,0,VALID,24.13,VALID,13,VALID,0.482422,
2010-08-01, 02:32:04,VALID,1005.02,VALID,0,VALID,104,VALID,0,VALID,24.1105,VALID,18,VALID,0.578906,
2010-08-01, 02:33:04,VALID,1005.08,VALID,0,VALID,104,VALID,0,VALID,24.0716,VALID,18,VALID,0.305078,
2010-08-01, 02:34:04,VALID,1005.12,VALID,0,VALID,104,VALID,0,VALID,24.0716,VALID,18,VALID,0.402344,
2010-08-01, 02:35:04,VALID,1005.18,VALID,0,VALID,104,VALID,0,VALID,24.0521,VALID,18,VALID,0.521875,
2010-08-01, 02:36:04,VALID,1005.17,VALID,0,VALID,104,VALID,0,VALID,24.0539,VALID,18,VALID,0.597266,
2010-08-01, 02:37:04,VALID,1005.21,VALID,0,VALID,104,VALID,0,VALID,24.0521,VALID,2,VALID,0.570703,
2010-08-01, 02:38:04,VALID,1005.2,VALID,0,VALID,104,VALID,0,VALID,24.0734,VALID,1,VALID,0.642578,
2010-08-01, 02:39:04,VALID,1005.22,VALID,0,VALID,104,VALID,0,VALID,24.0521,VALID,312,VALID,0.280859,
2010-08-01, 02:40:04,VALID,1005.2,VALID,0,VALID,104,VALID,0,VALID,24.0521,VALID,312,VALID,0.0652344,
2010-08-01, 02:41:04,VALID,1005.21,VALID,0,VALID,104,VALID,0,VALID,24.0326,VALID,312,VALID,0,
2010-08-01, 02:42:04,VALID,1005.24,VALID,0,VALID,104,VALID,0,VALID,24.0521,VALID,318,VALID,0.305469,
2010-08-01, 02:43:04,VALID,1005.23,VALID,0,VALID,104,VALID,0,VALID,24.0539,VALID,318,VALID,0,
2010-08-01, 02:44:04,VALID,1005.24,VALID,0,VALID,104,VALID,0,VALID,24.0521,VALID,318,VALID,0,
2010-08-01, 02:45:04,VALID,1005.23,VALID,0,VALID,104,VALID,0,VALID,24.0521,VALID,318,VALID,0,
2010-08-01, 02:46:04,VALID,1005.23,VALID,0,VALID,104,VALID,0,VALID,24.0521,VALID,269,VALID,0,
2010-08-01, 02:47:04,VALID,1005.27,VALID,0,VALID,104,VALID,0,VALID,24.0929,VALID,201,VALID,0.6,
2010-08-01, 02:48:04,VALID,1005.31,VALID,0,VALID,104,VALID,0,VALID,24.0716,VALID,201,VALID,0.560547,
2010-08-01, 02:49:04,VALID,1005.35,VALID,0,VALID,104,VALID,0,VALID,24.091,VALID,201,VALID,0,
2010-08-01, 02:50:04,VALID,1005.4,VALID,0,VALID,104,VALID,0,VALID,24.13,VALID,201,VALID,0.420312,
2010-08-01, 02:51:04,VALID,1005.42,VALID,0,VALID,104,VALID,0,VALID,24.13,VALID,142,VALID,0.641406,
2010-08-01, 02:52:04,VALID,1005.47,VALID,0,VALID,104,VALID,0,VALID,24.1105,VALID,141,VALID,0.319141,
2010-08-01, 02:53:04,VALID,1005.43,VALID,0,VALID,104,VALID,0,VALID,24.1105,VALID,141,VALID,0.333594,
2010-08-01, 02:54:04,VALID,1005.48,VALID,0,VALID,104,VALID,0,VALID,24.0716,VALID,141,VALID,0.124219,
2010-08-01, 02:55:04,VALID,1005.47,VALID,0,VALID,104,VALID,0,VALID,24.0521,VALID,141,VALID,0.355859,
2010-08-01, 02:56:04,VALID,1005.44,VALID,0,VALID,104,VALID,0,VALID,24.0521,VALID,141,VALID,0.0121094,
2010-08-01, 02:57:04,VALID,1005.46,VALID,0,VALID,104,VALID,0,VALID,24.0521,VALID,141,VALID,0,
2010-08-01, 02:58:04,VALID,1005.5,VALID,0,VALID,104,VALID,0,VALID,24.0521,VALID,141,VALID,0.0789063,
2010-08-01, 02:59:04,VALID,1005.46,VALID,0,VALID,104,VALID,0,VALID,24.0132,VALID,141,VALID,0.262891,
2010-08-01, 03:00:04,VALID,1005.46,VALID,0,VALID,104,VALID,0,VALID,24.0345,VALID,141,VALID,0,
2010-08-01, 03:01:04,VALID,1005.45,VALID,0,VALID,104,VALID,0,VALID,24.0132,VALID,141,VALID,0.00351562,
2010-08-01, 03:02:04,VALID,1005.46,VALID,0,VALID,104,VALID,0,VALID,24.0734,VALID,141,VALID,0.0558594,
2010-08-01, 03:03:04,VALID,1005.45,VALID,0,VALID,104,VALID,0,VALID,24.0326,VALID,141,VALID,0.141016,
2010-08-01, 03:04:04,VALID,1005.45,VALID,0,VALID,104,VALID,0,VALID,24.0326,VALID,141,VALID,0,
2010-08-01, 03:05:04,VALID,1005.48,VALID,0,VALID,104,VALID,0,VALID,24.0326,VALID,141,VALID,0.130078,
2010-08-01, 03:06:04,VALID,1005.52,VALID,0,VALID,104,VALID,0,VALID,24.0521,VALID,141,VALID,0.146484,
2010-08-01, 03:07:04,VALID,1005.6,VALID,0,VALID,104,VALID,0,VALID,24.0539,VALID,141,VALID,0.265234,
2010-08-01, 03:08:04,VALID,1005.64,VALID,0,VALID,104,VALID,0,VALID,24.0132,VALID,141,VALID,0.273047,
2010-08-01, 03:09:04,VALID,1005.68,VALID,0,VALID,104,VALID,0,VALID,23.9937,VALID,141,VALID,0,
2010-08-01, 03:10:04,VALID,1005.73,VALID,0,VALID,104,VALID,0,VALID,24.015,VALID,141,VALID,0,
2010-08-01, 03:11:04,VALID,1005.79,VALID,0,VALID,104,VALID,0,VALID,24.0132,VALID,141,VALID,0.0121094,
2010-08-01, 03:12:04,VALID,1005.83,VALID,0,VALID,104,VALID,0,VALID,23.9937,VALID,140,VALID,0,
2010-08-01, 03:13:04,VALID,1005.87,VALID,0,VALID,104,VALID,0,VALID,24.0132,VALID,140,VALID,0,
2010-08-01, 03:14:04,VALID,1005.88,VALID,0,VALID,104,VALID,0,VALID,24.0326,VALID,140,VALID,0.0222656,
2010-08-01, 03:15:04,VALID,1005.9,VALID,0,VALID,104,VALID,0,VALID,24.0326,VALID,140,VALID,0.187891,
2010-08-01, 03:16:04,VALID,1005.89,VALID,0,VALID,104,VALID,0.100563,VALID,24.0132,VALID,139,VALID,0.0449219,
2010-08-01, 03:17:04,VALID,1005.91,VALID,0,VALID,104,VALID,0,VALID,24.0539,VALID,139,VALID,0,
2010-08-01, 03:18:04,VALID,1005.9,VALID,0,VALID,104,VALID,0.100563,VALID,24.0716,VALID,138,VALID,0,
2010-08-01, 03:19:04,VALID,1005.93,VALID,0,VALID,104,VALID,0,VALID,24.0716,VALID,107,VALID,0,
2010-08-01, 03:20:04,VALID,1005.93,VALID,0,VALID,104,VALID,0,VALID,24.1123,VALID,87,VALID,0.497656,
2010-08-01, 03:21:04,VALID,1005.94,VALID,0,VALID,104,VALID,0,VALID,24.091,VALID,87,VALID,0,
2010-08-01, 03:22:04,VALID,1005.91,VALID,0,VALID,104,VALID,0,VALID,24.1105,VALID,84,VALID,0,
2010-08-01, 03:23:04,VALID,1005.89,VALID,0,VALID,104,VALID,0,VALID,24.1318,VALID,83,VALID,0,
2010-08-01, 03:24:04,VALID,1005.89,VALID,0,VALID,104,VALID,0,VALID,24.1105,VALID,83,VALID,0,
2010-08-01, 03:25:04,VALID,1005.87,VALID,0,VALID,104,VALID,0,VALID,24.13,VALID,79,VALID,0,
2010-08-01, 03:26:04,VALID,1005.91,VALID,0,VALID,104,VALID,0,VALID,24.13,VALID,75,VALID,0,
2010-08-01, 03:27:04,VALID,1005.91,VALID,0,VALID,104,VALID,0,VALID,24.1494,VALID,75,VALID,0,
2010-08-01, 03:28:04,VALID,1005.93,VALID,0,VALID,104,VALID,0.100563,VALID,24.1689,VALID,75,VALID,0,
2010-08-01, 03:29:04,VALID,1005.94,VALID,0,VALID,104,VALID,0,VALID,24.1689,VALID,51,VALID,0,
2010-08-01, 03:30:04,VALID,1005.96,VALID,0,VALID,104,VALID,0,VALID,24.1689,VALID,47,VALID,0,
2010-08-01, 03:31:04,VALID,1005.96,VALID,0,VALID,104,VALID,0,VALID,24.1689,VALID,48,VALID,0,
2010-08-01, 03:32:04,VALID,1005.93,VALID,0,VALID,104,VALID,0,VALID,24.1689,VALID,66,VALID,0,
2010-08-01, 03:33:04,VALID,1005.93,VALID,0,VALID,103.997,VALID,0,VALID,24.1689,VALID,9,VALID,0.462109,
2010-08-01, 03:34:04,VALID,1005.91,VALID,0,VALID,104,VALID,0,VALID,24.1689,VALID,61,VALID,0.00898437,
2010-08-01, 03:35:04,VALID,1005.92,VALID,0,VALID,103.989,VALID,0,VALID,24.1884,VALID,84,VALID,0.260938,
2010-08-01, 03:36:04,VALID,1005.93,VALID,0,VALID,104,VALID,0,VALID,24.1884,VALID,84,VALID,0,
2010-08-01, 03:37:04,VALID,1005.91,VALID,0,VALID,103.989,VALID,0,VALID,24.2078,VALID,84,VALID,0.198047,
2010-08-01, 03:38:04,VALID,1005.89,VALID,0,VALID,103.982,VALID,0.100563,VALID,24.2078,VALID,73,VALID,0.0761719,
2010-08-01, 03:39:04,VALID,1005.82,VALID,0,VALID,103.966,VALID,0,VALID,24.1884,VALID,73,VALID,0,
2010-08-01, 03:40:04,VALID,1005.81,VALID,0,VALID,103.959,VALID,0,VALID,24.1865,VALID,73,VALID,0.104297,
2010-08-01, 03:41:04,VALID,1005.8,VALID,0,VALID,103.966,VALID,0,VALID,24.2078,VALID,73,VALID,0,
2010-08-01, 03:42:04,VALID,1005.78,VALID,0,VALID,103.966,VALID,0,VALID,24.2078,VALID,73,VALID,0.335156,
2010-08-01, 03:43:04,VALID,1005.76,VALID,0,VALID,103.936,VALID,0.100563,VALID,24.2468,VALID,130,VALID,0.591406,
2010-08-01, 03:44:04,VALID,1005.77,VALID,0,VALID,103.966,VALID,0,VALID,24.2273,VALID,193,VALID,0.336328,
2010-08-01, 03:45:04,VALID,1005.74,VALID,0,VALID,103.951,VALID,0,VALID,24.2078,VALID,193,VALID,0,
2010-08-01, 03:46:04,VALID,1005.74,VALID,0,VALID,103.959,VALID,0,VALID,24.2078,VALID,193,VALID,0,
2010-08-01, 03:47:04,VALID,1005.72,VALID,0,VALID,103.936,VALID,0,VALID,24.2078,VALID,193,VALID,0.263281,
2010-08-01, 03:48:04,VALID,1005.72,VALID,0,VALID,103.913,VALID,0,VALID,24.2273,VALID,193,VALID,0,
2010-08-01, 03:49:04,VALID,1005.72,VALID,0,VALID,103.882,VALID,0.100563,VALID,24.2468,VALID,193,VALID,0,
2010-08-01, 03:50:04,VALID,1005.73,VALID,0,VALID,103.898,VALID,0,VALID,24.2875,VALID,193,VALID,0.139844,
2010-08-01, 03:51:04,VALID,1005.72,VALID,0,VALID,103.875,VALID,0,VALID,24.307,VALID,193,VALID,0,
2010-08-01, 03:52:04,VALID,1005.73,VALID,0,VALID,103.875,VALID,0,VALID,24.307,VALID,193,VALID,0,
2010-08-01, 03:53:04,VALID,1005.72,VALID,0,VALID,103.898,VALID,0,VALID,24.2857,VALID,193,VALID,0.496484,
2010-08-01, 03:54:04,VALID,1005.71,VALID,0,VALID,103.867,VALID,0,VALID,24.307,VALID,193,VALID,0.0328125,